User: anonymous   Login
Location: La Vergne
(36.0160°N, 86.5820°W)
Time: 22:31:01
(UTC-06:00)
Language:

Cosmos 1703 Rocket - Orbit

View from above orbital plane
View from above orbital plane
View from above satellite
View from above satellite

Ground track
Ground track

The orbit data is extracted from the following two-line orbital elements,

1 16263U 85108B   17051.92542650 +.00000111 +00000-0 +10669-4 0  9996
2 16263 082.5021 223.3756 0020454 015.4107 095.6747 14.82969525666073
Epoch (UTC): 20 February 2017 22:12:36
Eccentricity: 0.0020454
inclination: 82.5021°
perigee height: 605 km
apogee height: 634 km
right ascension of ascending node: 223.3756°
argument of perigee: 15.4107°
revolutions per day: 14.82969525
mean anomaly at epoch: 95.6747°
orbit number at epoch: 66607

The dashed part of the orbit path shows where the satellite is in the earth's shadow,  

DLR